Location: Wojcin
(51.3330°N, 20.0330°E)
Time: 20:42:58
(UTC+02:00)

Envisat - Visible Passes

Search period start: 01 October 2023 00:00
Search period end: 11 October 2023 00:00
Orbit: 763 x 764 km, 98.2° (Epoch: 01 October)

Date Brightness Start Highest point End Pass type
(mag) Time Alt. Az. Time Alt. Az. Time Alt. Az.
01 Oct 5.8 02:45:24 10° ENE 02:46:41 11° E 02:47:57 10° E visible
01 Oct 3.2 04:21:33 10° NNE 04:26:38 69° ESE 04:30:46 15° S visible
01 Oct 4.2 06:01:18 10° N 06:05:11 22° WNW 06:09:02 10° WSW visible
02 Oct 4.4 03:44:37 10° NNE 03:49:15 34° E 03:53:00 14° SSE visible
02 Oct 3.5 05:23:34 10° N 05:28:19 40° WNW 05:33:01 10° SW visible
03 Oct 5.4 03:08:15 10° NE 03:11:39 18° E 03:15:02 10° SE visible
03 Oct 2.9 04:46:09 10° NNE 04:51:15 77° WNW 04:55:24 16° SSW visible
04 Oct 3.6 04:08:59 10° NNE 04:13:59 54° E 04:17:38 18° S visible
04 Oct 4.0 05:48:29 10° N 05:52:41 27° WNW 05:56:54 10° WSW visible
05 Oct 4.8 03:32:11 10° NE 03:36:32 28° E 03:39:51 15° SE visible
05 Oct 3.2 05:10:51 10° N 05:15:45 50° WNW 05:20:01 13° SW visible
06 Oct 5.7 02:56:13 10° NE 02:58:51 14° E 03:01:29 10° ESE visible
06 Oct 3.0 04:33:30 10° NNE 04:38:38 85° ESE 04:42:14 20° SSW visible
07 Oct 4.0 03:56:26 10° NNE 04:01:18 43° E 04:04:27 20° SSE visible
07 Oct 3.7 05:35:41 10° N 05:40:11 33° WNW 05:44:37 10° SW visible
08 Oct 5.1 03:19:49 10° NE 03:23:46 22° E 03:26:41 14° SE visible
08 Oct 3.0 04:58:09 10° N 05:03:11 62° WNW 05:06:50 18° SW visible
09 Oct 5.8 02:44:43 10° ENE 02:46:01 11° E 02:47:19 10° E visible
09 Oct 3.2 04:20:53 10° NNE 04:25:59 69° ESE 04:29:03 24° S visible
09 Oct 4.2 06:00:39 10° N 06:04:31 22° WNW 06:08:23 10° WSW visible
10 Oct 4.4 03:43:57 10° NNE 03:48:35 34° E 03:51:16 21° SE visible
10 Oct 3.5 05:22:54 10° N 05:27:38 40° WNW 05:31:25 15° SW visible
